Regional Weather Roundup
Issued by NWS

Home | Current Version | Previous Version | Text Only | Print | Product List | Glossary Off
Versions: 1 2 3 4 5 6 7 8 9 10 11 12 13 14 15 16 17 18 19 20 21 22 23 24 25 26 27 28 29 30 31 32 33 34 35 36 37 38 39 40 41 42 43 44 45 46 47 48 49 50

000
ASUS43 KBIS 270102
RWRND

NORTH DAKOTA REGIONAL WEATHER ROUNDUP
NATIONAL WEATHER SERVICE BISMARCK ND
800 PM CDT MON JUN 26 2017

NOTE: "FAIR" INDICATES FEW OR NO CLOUDS BELOW 12,000 FEET WITH NO
SIGNIFICANT WEATHER AND/OR OBSTRUCTIONS TO VISIBILITY.


NDZ001>003-009>011-017-270200-
NORTHWEST NORTH DAKOTA

CITY           SKY/WX    TMP DP  RH WIND       PRES   REMARKS
WILLISTON      MOSUNNY   82  41  23 SE9       29.91F
MINOT          SUNNY     76  40  27 SE10      29.99F
MINOT AFB      SUNNY     75  41  29 SE9       29.98F
$$

NDZ018>021-031>035-040>046-270200-
SOUTHWEST NORTH DAKOTA

CITY           SKY/WX    TMP DP  RH WIND       PRES   REMARKS
BISMARCK       SUNNY     74  41  30 SE15      30.04F
DICKINSON      MOSUNNY   75  33  21 S17       29.97F
GARRISON         N/A     74  42  31 S7        29.99F
HETTINGER ARPT SUNNY     76  38  25 S17       30.03F
$$

NDZ004>008-012>016-024-026-027-054-270200-
NORTHEAST NORTH DAKOTA

CITY           SKY/WX    TMP DP  RH WIND       PRES   REMARKS
GRAND FORKS    MOSUNNY   73  42  32 W7        30.06
GRND FRKS AFB  SUNNY     71  40  32 W6        30.07F
DEVILS LAKE    SUNNY     68  42  38 SE5       30.07F
$$

NDZ022-023-025-028>030-036>039-047>053-270200-
SOUTHEAST NORTH DAKOTA

CITY           SKY/WX    TMP DP  RH WIND       PRES   REMARKS
FARGO          SUNNY     72  38  29 W9        30.08F
JAMESTOWN      SUNNY     69  39  33 SW5       30.09F
$$





USA.gov is the U.S. government's official web portal to all federal, state and local government web resources and services.